User: anonymous   Login
Location: Bergnerzell
(49.1816°N, 10.2565°E)
Time: 20:33:44
(UTC+00:00)
Language:

Meteor 1-24 Rocket - Orbit

View from above orbital plane
View from above orbital plane
View from above satellite
View from above satellite

Ground track
Ground track

The orbit data is extracted from the following two-line orbital elements,

1 08800U 76032B   24199.55585432  .00000082  00000-0  37033-4 0  9996
2 08800  81.2482 219.8243 0094995  59.0775 301.9691 14.10415836482647
Epoch (UTC): 17 July 2024 13:20:25
Eccentricity: 0.0094995
inclination: 81.2482°
perigee height: 789 km
apogee height: 926 km
right ascension of ascending node: 219.8243°
argument of perigee: 59.0775°
revolutions per day: 14.10415836
mean anomaly at epoch: 301.9691°
orbit number at epoch: 48264

The dashed part of the orbit path shows where the satellite is in the earth's shadow,  

DLR